This is the latest recevied weather packets stored in our database for station/object KP3M-5. If no packets are shown the sender has not sent any weather packets the latest 10 day(s).
| Time | Temp. | Humidity | Pressure | Rain* | Wind** | Luminosity | Snow |
|---|---|---|---|---|---|---|---|
| 1788095104 | 25° C | 83% | 1024 hPa | - | - | - | - |
| 1788091503 | 24.44° C | 85% | 1024 hPa | - | - | - | - |
| 1788087915 | 24.44° C | 85% | 1024 hPa | - | - | - | - |
| 1788084304 | 24.44° C | 87% | 1024 hPa | - | - | - | - |
| 1788080704 | 24.44° C | 86% | 1024 hPa | - | - | - | - |
| 1788077104 | 25° C | 85% | 1024 hPa | - | - | - | - |
| 1788041104 | 27.78° C | 77% | 1024 hPa | - | - | - | - |
| 1788037504 | 28.89° C | 71% | 1024 hPa | - | - | - | - |
| 1788033903 | 29.44° C | 68% | 1024 hPa | - | - | - | - |
| 1788030305 | 30° C | 65% | 1024 hPa | - | - | - | - |
| 1788026704 | 30° C | 63% | 1024 hPa | - | - | - | - |
| 1788023104 | 30.56° C | 63% | 1024 hPa | - | - | - | - |
| 1788019504 | 30° C | 67% | 1024 hPa | - | - | - | - |
| 1788015909 | 28.89° C | 71% | 1024 hPa | - | - | - | - |
| 1788012304 | 27.78° C | 76% | 1024 hPa | - | - | - | - |
| 1788008704 | 27.22° C | 77% | 1024 hPa | - | - | - | - |
| 1788005104 | 26.67° C | 79% | 1024 hPa | - | - | - | - |
| 1788001504 | 24.44° C | 86% | 1024 hPa | - | - | - | - |
| 1787997904 | 23.89° C | 87% | 1024 hPa | - | - | - | - |
| 1787994307 | 24.44° C | 86% | 1024 hPa | - | - | - | - |
| 1787990704 | 24.44° C | 89% | 1024 hPa | - | - | - | - |
| 1787954703 | 28.33° C | 70% | 1024 hPa | - | - | - | - |
| 1787951103 | 29.44° C | 64% | 1024 hPa | - | - | - | - |
| 1787947506 | 30° C | 61% | 1024 hPa | - | - | - | - |
| 1787943905 | 30° C | 61% | 1024 hPa | - | - | - | - |
* Rain since midnight (hover to see other rain measurements)
** Current wind speed in m/s (hover to see current wind gust speed)